GEFSMW_500_meanwind_168.txt.gz
Wind_Speed
21 21 22 22 22 21 22 21 21 22 22 23 23 24 24 25 26 26 27 28 29 29 29 29 30 30 30 29 28 29 29 29 28 28 28 28 28 28 29 30 30 30 29
22 22 21 21 21 22 22 22 22 23 24 24 24 25 25 26 27 28 28 29 30 31 31 31 31 30 30 30 30 29 30 30 30 29 29 29 29 28 29 30 31 31 30
21 21 22 22 22 22 22 22 22 23 24 25 25 25 26 27 29 29 28 29 29 30 31 31 31 31 30 30 30 30 30 30 30 29 29 29 29 29 29 30 31 32 31
23 23 23 23 23 23 23 23 23 24 25 26 26 26 27 28 28 28 27 28 29 30 30 31 31 31 31 30 30 30 30 29 30 29 29 29 29 29 29 30 30 31 32
23 23 23 23 23 23 22 22 23 24 25 25 26 27 27 28 28 29 29 29 30 29 30 30 30 30 30 30 30 30 29 29 28 29 29 29 29 29 30 30 30 30 31
23 23 23 23 23 23 22 23 24 24 24 25 26 27 28 28 29 29 28 28 29 29 29 29 29 29 29 29 29 29 28 29 28 29 29 29 28 29 29 29 30 30 30
22 23 23 23 23 24 24 24 24 24 25 26 27 27 27 28 28 28 28 28 28 29 28 29 28 28 28 28 27 27 27 27 28 28 27 28 28 27 28 28 28 28 28
21 22 22 23 23 24 24 24 25 26 26 27 27 28 27 27 26 27 26 27 26 26 26 26 26 26 26 25 25 25 25 25 26 26 26 26 26 26 26 25 25 25 26
22 22 23 23 23 23 24 25 26 27 27 28 28 27 26 24 25 25 24 25 25 25 24 24 24 23 23 24 24 24 24 23 23 23 24 25 25 25 25 25 25 25 24
22 22 23 24 24 24 24 25 26 27 27 27 26 26 24 23 23 23 23 23 23 22 22 22 21 21 21 21 22 22 22 22 21 22 22 23 23 23 23 25 25 26 25
22 22 23 23 24 24 24 25 26 26 26 25 23 23 22 22 22 22 22 22 21 20 20 20 19 19 19 19 19 19 20 20 19 19 19 19 20 21 21 22 22 23 24
21 22 22 22 22 23 24 25 24 24 23 23 21 21 21 21 20 20 19 19 19 19 19 18 17 17 17 17 17 17 17 17 16 16 16 16 17 18 19 20 21 21 21
20 21 21 21 22 22 23 22 22 22 21 21 19 20 19 18 18 18 18 18 18 18 17 16 16 16 16 16 15 14 15 15 14 13 13 14 15 16 17 17 18 18 19
20 20 19 19 20 20 20 20 19 19 19 18 17 16 16 15 16 16 16 16 16 16 15 15 16 15 14 14 14 14 14 13 13 13 13 14 13 14 15 14 14 15 16
19 19 18 18 18 18 18 17 17 16 15 15 14 14 14 14 14 14 14 14 14 14 14 14 14 13 13 13 13 13 12 11 11 12 12 12 12 12 12 12 12 13 13
18 18 17 16 16 16 15 14 14 13 12 12 12 12 12 12 12 12 13 12 12 12 12 12 12 11 11 12 11 10 10 10 10 9 9 9 9 10 10 10 10 10 11
16 16 16 15 14 13 13 12 12 11 11 11 11 11 11 10 11 11 11 11 11 11 11 11 11 10 10 10 10 9 9 8 7 6 6 6 6 6 6 6 7 7 7
15 14 14 13 11 11 10 10 10 9 10 10 10 10 10 10 10 10 10 10 10 10 10 9 10 10 10 9 9 9 8 6 5 5 5 4 4 3 3 3 4 4 4
13 12 11 11 10 10 9 10 9 9 9 9 9 9 9 9 9 9 10 10 10 9 9 9 9 9 9 9 8 8 7 6 5 5 4 3 2 2 2 2 2 3 3
11 11 10 10 9 9 8 8 7 7 7 8 8 7 7 8 9 9 9 9 9 9 8 8 8 8 7 7 7 7 7 5 5 5 4 3 2 2 2 2 2 2 2
10 9 8 8 7 7 6 6 6 6 6 6 7 7 7 8 9 9 9 9 9 8 8 8 8 7 7 7 7 7 6 5 5 5 4 3 2 3 2 2 1 1 2
8 7 7 6 6 6 5 5 4 5 5 6 7 7 7 7 8 8 8 8 8 9 8 8 8 8 7 7 7 6 5 5 5 5 4 4 3 3 2 1 1 2 2
7 7 6 6 5 5 4 4 4 4 4 5 6 6 6 6 7 7 8 8 8 9 9 9 8 8 8 7 7 6 5 4 4 4 4 5 4 3 2 2 1 2 2
6 6 5 4 4 4 3 4 4 3 4 4 5 5 6 6 6 6 7 8 8 9 9 9 9 8 8 8 7 6 5 4 4 4 4 4 4 4 3 3 2 3 3
5 5 4 4 4 3 3 3 4 4 4 4 4 5 5 5 5 6 7 8 9 9 9 9 8 8 8 8 7 6 5 5 4 4 4 4 4 4 4 4 4 4 4
5 5 4 4 3 3 2 3 4 4 4 4 5 5 5 5 5 5 6 7 8 8 8 8 8 8 8 8 7 7 6 5 5 5 4 4 4 4 4 5 5 5 5

GEFSMW_500_meanwind_174.txt.gz
Wind_Speed
23 24 24 25 25 25 25 25 25 26 27 28 28 28 26 27 27 28 28 29 29 30 31 32 32 32 32 33 33 33 32 31 30 30 29 29 28 28 28 28 28 29 29
24 24 25 25 26 26 26 27 27 27 28 28 28 27 26 27 27 28 29 29 30 31 32 32 32 33 32 32 32 32 32 31 31 30 29 29 29 29 28 28 28 28 29
24 25 26 26 26 26 26 27 27 27 28 28 27 27 27 28 28 29 29 30 31 32 32 33 33 33 32 31 31 32 32 30 30 30 29 29 29 28 28 28 29 29 28
25 26 26 25 26 26 26 27 27 27 28 27 27 28 28 29 29 30 30 31 32 31 31 32 32 32 32 31 31 31 30 29 29 30 30 29 29 29 29 29 29 29 28
26 26 26 25 25 25 25 26 27 27 27 26 27 29 29 29 29 30 30 30 30 30 31 31 31 31 30 30 30 29 28 27 28 28 28 29 29 29 29 28 29 29 29
26 27 27 26 26 26 26 26 26 26 26 26 27 28 29 29 29 29 30 29 29 29 30 30 30 29 28 27 26 26 26 26 26 26 27 27 28 28 28 28 28 28 29
27 27 27 26 26 26 26 26 27 26 26 27 27 28 29 29 29 29 29 28 28 28 28 28 28 27 26 24 24 23 23 24 24 24 25 26 26 26 26 26 26 27 27
27 26 27 26 26 26 26 26 26 26 27 28 28 29 29 29 29 29 28 28 27 27 27 27 26 25 24 23 22 22 22 23 22 23 24 25 25 24 24 23 23 24 24
26 26 26 26 26 26 26 26 26 26 27 28 28 29 29 29 28 28 28 28 27 27 26 25 24 24 23 22 21 21 20 20 20 20 21 22 22 22 22 22 22 23 23
27 26 26 25 25 25 25 26 26 27 27 27 27 28 28 28 28 27 27 27 27 26 25 24 23 23 22 20 20 19 19 19 19 19 19 19 20 20 21 21 21 22 22
27 26 25 25 25 25 26 25 26 26 26 27 27 27 27 27 27 26 26 25 25 24 23 23 22 21 19 19 18 17 17 17 17 17 17 18 18 18 19 19 19 19 19
26 26 25 25 24 25 25 25 25 26 26 26 26 25 25 25 24 24 23 22 21 21 20 19 19 18 17 17 17 17 16 16 17 17 17 17 16 16 16 16 15 16 17
25 25 25 24 24 24 24 23 24 23 23 23 23 22 22 22 22 22 20 19 19 19 18 17 16 16 15 16 16 15 15 15 15 15 15 14 14 14 14 13 12 13 14
24 24 24 23 23 22 22 22 21 21 21 20 20 20 20 20 20 19 18 17 17 16 16 15 14 14 15 15 15 15 15 15 14 14 13 13 13 13 12 11 11 11 12
23 23 22 21 21 20 19 19 19 18 17 17 17 17 17 17 17 16 16 15 14 14 14 13 13 14 14 15 15 15 14 14 13 13 12 12 12 12 11 10 11 11 10
21 21 20 19 18 18 17 17 16 15 15 15 15 15 15 15 14 14 13 13 13 13 13 12 13 13 14 15 15 15 13 13 12 11 11 10 10 10 11 10 9 9 9
20 19 18 18 17 16 15 15 14 13 13 13 13 13 14 13 13 12 12 13 13 13 12 12 12 13 14 14 14 13 13 12 11 10 9 10 10 10 9 9 8 8 8
19 18 17 16 15 14 14 14 13 12 12 12 12 13 13 12 12 13 13 13 13 13 13 12 12 13 14 13 13 13 12 11 10 9 9 9 8 8 8 8 8 8 7
18 17 16 15 14 13 13 12 11 11 11 12 12 12 12 12 13 13 13 12 13 12 11 11 12 13 13 13 13 12 12 11 10 8 8 8 8 8 8 7 7 6 6
16 15 14 13 13 12 12 11 10 10 10 11 11 11 11 12 12 12 12 12 13 12 12 13 13 13 12 13 13 12 11 10 9 9 8 8 7 7 7 8 7 6 6
14 13 12 11 11 11 10 10 10 10 10 10 11 11 11 11 11 11 11 12 12 12 12 13 13 14 13 13 13 12 11 10 9 8 8 8 8 8 8 8 7 8 7
12 11 10 10 10 10 10 10 10 10 10 10 9 10 10 11 11 11 11 12 12 11 11 12 13 13 13 13 11 11 10 10 10 9 8 8 8 8 8 8 8 8 8
10 10 10 10 9 9 9 9 9 9 9 9 9 9 10 10 10 10 11 11 11 11 11 12 12 12 12 12 11 10 10 10 10 9 8 8 8 8 8 8 8 8 8
9 9 9 9 9 9 8 9 8 8 8 8 8 9 9 9 10 10 10 11 11 11 12 12 12 12 12 12 11 11 11 10 10 10 9 9 9 9 9 8 8 8 8
7 8 8 8 8 8 8 8 7 8 8 7 7 8 9 9 9 10 10 10 11 11 12 12 12 12 12 12 12 12 11 11 11 10 10 11 10 9 8 8 8 8 7
6 6 7 7 7 7 7 7 7 7 8 7 7 8 9 9 10 10 10 10 11 11 12 12 12 12 12 12 12 12 12 11 11 11 11 11 10 10 8 8 8 8 8

GEFSMW_500_meanwind_180.txt.gz
Wind_Speed
16 19 19 20 20 21 23 23 23 24 25 25 25 25 26 27 27 27 27 28 28 28 28 29 28 28 28 28 29 29 29 29 29 28 28 28 27 28 28 29 29 29 29
16 18 19 21 21 23 25 25 24 25 25 25 25 26 26 25 26 26 27 28 28 29 29 28 28 28 29 29 30 29 29 29 29 29 29 28 27 27 28 29 29 28 28
17 17 19 21 23 24 24 24 25 25 25 25 26 26 26 25 25 26 26 26 26 27 28 27 28 29 30 29 29 28 28 28 28 28 28 28 27 27 27 28 29 29 29
19 19 20 21 22 23 23 23 25 25 25 25 25 25 25 26 26 26 26 25 26 27 27 27 28 29 28 28 28 28 27 26 26 26 27 27 26 25 25 26 27 27 28
19 20 21 23 23 24 24 25 25 25 25 25 25 26 26 27 27 26 25 26 26 26 27 27 27 27 26 27 27 27 26 25 25 25 25 24 24 24 24 24 25 25 26
19 21 23 24 24 25 26 26 26 25 25 25 25 26 26 27 26 26 26 26 26 26 26 25 25 25 25 25 25 24 24 23 22 23 23 23 22 22 22 22 23 24 24
21 21 23 25 25 25 26 26 26 25 25 25 26 26 26 26 26 26 26 25 25 25 25 25 25 24 25 24 23 23 22 21 20 20 20 20 20 20 21 22 22 23 23
22 23 24 25 25 25 25 25 25 24 24 24 25 25 25 26 26 26 26 25 25 25 24 24 24 24 23 23 22 21 20 19 19 18 18 17 18 18 19 19 19 20 21
23 23 24 24 24 24 23 23 23 24 23 23 23 24 25 25 25 25 24 24 24 23 23 23 23 22 22 22 21 20 20 19 18 17 16 16 17 17 17 17 18 18 19
23 23 24 23 22 22 21 22 23 22 22 22 22 23 24 25 24 24 24 23 22 22 21 20 20 20 21 20 20 19 18 17 16 16 16 16 16 16 16 16 17 17 17
23 22 22 22 21 20 21 21 20 20 20 21 22 23 24 23 23 23 22 21 20 20 20 19 19 19 19 19 18 18 16 16 15 15 15 14 14 14 14 14 14 15 16
21 20 20 20 19 19 19 19 19 19 19 20 21 22 22 22 21 21 20 19 19 19 19 18 17 17 17 17 17 16 15 14 14 13 13 12 12 12 13 13 14 14 14
21 20 19 19 19 18 18 18 18 18 19 19 20 20 20 19 19 18 18 17 17 17 17 17 17 17 16 16 15 14 13 13 13 13 12 12 12 12 12 12 13 13 13
20 20 18 17 17 17 17 17 18 18 18 18 18 18 18 17 17 17 16 16 15 15 15 15 16 16 14 14 14 13 12 12 13 12 12 11 11 11 11 11 11 12 12
19 18 17 17 18 18 17 17 17 17 17 17 16 16 16 16 16 16 15 15 14 15 15 15 15 14 13 13 12 12 12 12 12 11 11 11 10 11 11 10 10 10 10
18 17 17 17 17 17 16 16 16 16 15 15 15 14 14 15 15 14 14 14 13 13 14 14 14 13 13 13 12 12 12 12 11 11 10 10 10 10 10 10 10 11 11
18 18 18 18 16 16 15 15 15 15 15 14 14 14 13 14 14 13 13 13 12 12 12 12 12 12 12 12 12 11 11 11 11 11 10 11 10 10 10 10 10 11 11
17 17 17 16 16 15 14 14 14 14 14 14 13 13 13 13 12 12 12 12 12 12 12 12 11 11 12 12 12 11 10 10 10 10 10 10 10 10 9 10 11 11 11
16 16 15 14 14 13 12 13 13 13 13 13 12 12 12 12 12 12 12 12 12 12 12 11 11 12 12 11 11 11 10 9 9 9 9 9 10 10 10 10 10 10 10
14 13 13 13 13 12 12 12 12 12 12 12 12 12 11 11 12 12 12 12 11 11 12 11 11 11 12 12 11 10 9 8 8 8 9 9 8 8 8 8 9 9 9
12 11 12 11 11 11 11 11 11 11 11 11 11 11 11 11 11 12 11 11 11 11 12 12 12 12 12 12 12 11 9 8 8 8 8 8 8 7 7 7 8 8 8
11 10 10 10 10 10 10 10 10 10 10 10 10 10 10 10 11 11 11 11 11 11 11 11 11 12 12 11 11 11 10 9 8 8 8 8 8 8 8 8 8 8 8
11 10 9 9 9 9 9 10 10 9 9 9 9 9 9 9 10 10 10 10 10 10 10 10 11 11 11 11 11 11 11 10 9 8 8 8 8 8 9 9 9 9 10
9 10 9 8 8 8 9 9 9 8 7 7 7 8 8 8 9 10 10 10 10 11 11 10 10 11 11 11 11 11 11 10 10 9 9 9 9 9 9 10 10 10 11
7 7 8 8 8 8 8 7 7 6 6 6 7 7 7 8 9 9 10 10 10 11 10 11 11 11 11 12 12 12 11 11 11 11 10 10 10 10 10 10 10 11 11
6 5 5 6 6 6 5 5 5 5 5 5 6 7 7 8 9 9 10 11 11 11 11 11 12 12 12 12 12 12 12 12 12 12 11 12 11 11 11 11 11 12 11

GEFSMW_500_meanwind_186.txt.gz
Wind_Speed
19 19 19 20 20 21 21 22 23 23 23 25 25 26 27 27 28 27 28 28 29 29 29 30 29 30 31 31 31 31 31 31 31 30 30 31 30 31 31 32 32 31 31
19 19 21 21 21 22 22 23 23 24 24 25 26 26 28 28 28 27 28 29 29 29 30 29 29 30 30 31 30 30 30 30 30 30 30 30 29 29 30 31 32 31 31
19 19 19 20 21 22 23 23 24 25 25 26 27 27 27 27 28 28 28 29 30 30 29 29 29 29 30 29 29 29 29 29 29 29 29 28 28 28 29 29 30 30 30
19 19 19 19 21 22 23 24 24 25 24 25 26 27 27 27 28 28 28 29 29 28 28 29 29 29 29 29 28 28 28 28 28 28 27 27 26 26 26 27 28 29 29
19 20 20 21 22 23 24 25 25 25 25 25 26 28 28 28 27 27 28 28 27 27 28 28 28 28 28 28 28 27 26 26 26 25 25 24 24 24 24 24 26 26 27
20 21 21 22 22 23 24 24 25 25 26 26 26 27 28 27 27 27 27 27 27 27 26 27 27 27 27 28 27 26 25 25 25 24 24 23 23 23 23 22 22 24 25
18 20 21 21 22 23 23 24 25 25 25 24 25 26 26 26 26 26 27 27 26 26 26 26 26 26 26 26 26 26 26 26 25 24 24 23 22 22 21 20 21 22 22
17 19 19 19 20 21 22 23 24 23 23 23 24 25 25 25 25 26 26 26 25 25 25 25 25 25 25 25 25 25 26 25 25 24 23 22 20 19 19 19 20 20 20
17 18 18 19 20 21 22 22 22 21 22 22 22 23 23 23 24 24 25 25 24 23 23 24 24 23 24 24 24 23 23 22 22 22 22 20 19 18 18 19 19 20 19
18 19 18 19 19 19 19 19 18 20 21 21 21 22 22 22 23 23 24 23 23 22 22 22 22 22 22 22 22 21 20 20 20 19 19 19 19 18 18 18 18 18 18
17 17 17 18 18 18 17 16 17 19 20 20 21 20 20 20 21 21 22 22 22 22 20 20 20 20 20 20 18 18 19 19 18 18 18 17 17 17 17 17 17 17 17
18 18 17 17 17 17 17 17 17 18 19 19 20 19 18 19 20 21 21 21 21 21 20 19 19 18 18 18 17 17 17 17 16 16 16 16 16 16 16 16 16 16 16
18 17 16 17 17 17 17 17 18 19 19 19 19 19 18 18 19 20 21 21 20 19 18 18 18 18 18 18 17 16 16 16 16 16 16 15 16 16 15 15 16 16 16
19 18 17 17 17 17 17 18 18 18 18 18 19 18 18 18 19 20 20 20 19 18 17 17 18 18 17 17 16 16 16 16 16 16 15 15 16 15 15 15 15 16 16
19 18 18 18 18 18 18 18 18 17 18 18 18 18 18 18 18 19 19 19 18 17 16 16 17 17 17 16 16 16 16 16 15 15 15 15 15 15 15 15 16 16 16
18 18 18 17 17 18 18 17 17 17 17 18 17 17 18 18 19 18 18 18 17 16 15 16 16 16 16 15 15 15 15 16 15 15 15 15 15 15 14 15 15 16 16
18 18 18 18 19 18 18 18 17 17 17 17 17 17 18 18 18 18 18 17 16 16 16 16 16 16 16 16 15 15 15 14 14 14 14 14 14 13 14 14 15 16 17
18 17 17 17 16 16 17 17 17 16 16 16 16 16 17 17 18 18 17 16 16 16 17 16 16 16 16 16 15 15 14 14 14 14 14 13 13 12 13 13 13 14 15
16 16 16 16 16 16 16 16 16 15 15 14 14 15 16 16 17 16 16 16 16 16 16 16 15 15 15 15 15 14 13 12 12 12 12 12 12 12 13 13 12 12 13
16 15 15 15 15 15 14 14 14 13 13 13 14 14 15 15 16 16 15 15 15 15 15 15 15 15 14 14 14 13 12 11 11 11 11 11 12 12 12 12 12 12 13
15 15 14 15 15 13 12 12 13 13 13 13 13 14 14 14 14 14 14 15 15 14 15 15 15 14 14 14 13 12 11 11 11 11 11 12 12 13 13 12 12 12 12
14 13 13 13 13 12 11 11 12 12 12 11 11 11 11 12 13 13 13 14 14 14 14 14 14 14 14 13 12 12 12 12 12 12 12 13 13 13 13 13 13 13 13
13 12 11 11 11 11 10 10 11 11 10 10 10 10 10 12 12 12 13 14 14 14 14 14 14 14 14 13 13 13 13 14 14 14 14 14 14 14 13 14 13 13 13
12 11 10 11 11 11 10 11 11 10 9 8 8 9 10 11 11 11 12 13 14 14 14 14 14 14 14 14 13 13 14 14 14 14 14 14 14 14 14 14 15 15 15
12 11 10 10 10 9 9 9 9 8 7 7 7 8 9 10 10 11 12 12 13 14 14 14 14 14 14 14 14 14 14 14 15 14 14 14 15 16 16 16 16 16 16
11 11 9 9 8 7 7 7 6 6 5 6 6 7 8 9 10 10 11 13 14 14 15 15 15 15 15 15 15 15 15 15 16 16 15 15 16 17 17 17 18 18 17

GEFSMW_500_meanwind_192.txt.gz
Wind_Speed
20 21 22 22 22 22 23 24 26 26 26 27 28 28 26 26 26 28 28 28 28 29 29 29 29 30 30 30 30 30 30 30 30 30 30 30 30 30 31 31 31 31 32
21 22 23 23 23 23 24 24 26 26 26 26 27 27 25 26 28 29 28 28 29 29 29 29 29 29 30 30 30 30 31 31 30 29 29 29 29 29 30 30 29 30 30
21 22 22 23 23 24 25 25 26 25 25 25 26 26 26 27 27 29 28 29 28 28 29 28 29 30 30 30 30 31 31 30 30 29 29 28 28 28 28 29 28 29 29
20 21 21 22 22 23 24 25 25 25 24 25 26 27 27 27 28 28 29 29 29 29 28 28 29 29 29 29 29 29 30 30 29 29 28 28 28 28 27 27 27 27 27
20 20 20 20 21 22 24 24 24 23 24 25 26 27 27 27 28 29 29 29 28 28 28 28 28 28 28 28 28 28 28 28 28 28 27 28 27 27 27 26 25 26 26
19 19 19 20 20 21 22 23 23 23 24 25 26 26 26 27 28 29 29 28 27 26 26 26 27 27 27 27 27 27 27 27 26 26 27 26 26 26 26 25 24 24 25
18 19 19 19 20 21 21 22 22 22 23 24 24 25 26 27 27 27 28 27 27 26 25 25 25 25 25 25 25 25 24 24 24 24 25 25 25 25 25 25 24 23 23
17 18 19 19 19 20 20 20 20 22 23 23 23 23 25 25 26 26 26 26 25 24 23 23 23 23 24 24 24 24 23 23 22 22 22 23 23 24 25 24 24 23 22
17 18 18 18 18 19 20 20 20 22 22 22 22 23 23 24 24 24 24 23 23 23 22 22 22 22 23 23 23 23 22 21 20 20 20 21 21 22 22 22 23 23 23
18 18 18 18 17 18 19 18 20 20 21 21 21 22 22 22 22 22 22 22 22 22 22 22 22 21 22 22 22 22 21 20 20 19 19 20 20 20 20 20 20 21 21
18 18 19 19 18 18 18 19 19 20 20 20 21 21 21 20 20 20 20 20 21 21 22 22 21 21 21 21 21 20 20 19 19 19 19 19 20 20 20 20 19 19 20
19 20 20 20 19 19 19 19 19 20 19 19 19 19 19 19 19 19 19 19 20 21 21 20 20 20 20 19 19 19 19 19 19 19 19 19 19 19 19 19 19 18 19
20 21 21 21 20 20 19 19 19 19 18 19 18 18 19 19 19 18 18 19 20 20 20 19 19 19 18 19 19 19 19 18 18 18 18 18 18 18 18 18 18 18 18
21 21 22 22 21 20 20 19 18 18 18 18 17 18 18 18 18 18 18 19 19 19 19 19 18 18 18 18 18 18 19 18 18 18 17 18 17 17 17 17 18 18 18
21 22 22 22 20 19 19 19 18 18 18 18 17 18 17 17 18 18 19 19 18 19 18 18 18 18 18 17 17 17 18 17 17 17 17 16 16 16 16 16 17 17 17
21 21 21 21 20 19 19 18 19 19 18 18 18 18 18 18 18 19 19 19 18 18 19 18 18 18 18 18 17 17 16 16 16 16 15 15 15 15 15 15 15 16 16
20 20 20 19 19 18 19 18 18 17 17 17 17 17 18 18 18 18 19 19 18 18 18 18 18 18 18 18 18 17 16 15 14 14 13 13 13 13 13 13 14 14 14
19 18 18 17 18 18 18 18 18 17 16 17 17 17 18 18 18 18 18 18 18 18 18 18 19 19 18 17 16 15 14 13 13 12 12 12 12 12 12 12 13 13 14
19 18 18 18 17 17 17 17 16 16 16 16 16 17 16 16 17 17 18 18 18 18 18 18 18 18 17 17 16 14 13 12 12 12 12 12 12 12 13 13 13 13 14
19 18 18 18 17 17 16 16 16 15 15 15 15 16 16 16 16 16 17 17 17 17 17 17 17 16 16 15 14 13 12 12 12 12 12 13 13 13 13 13 13 13 13
19 18 17 17 16 16 15 15 14 14 15 14 14 14 15 14 14 14 14 15 16 16 16 15 15 15 15 14 13 13 12 12 12 13 12 13 13 14 14 14 14 14 14
18 17 16 16 14 13 13 13 12 12 12 11 11 12 13 12 11 12 13 13 14 14 14 15 15 15 15 15 14 14 13 12 12 13 13 14 15 15 15 15 15 15 15
16 15 15 14 13 12 11 11 11 10 10 10 10 11 11 10 10 10 12 12 13 13 13 14 13 14 15 15 15 14 14 14 14 15 15 15 15 15 16 16 16 16 16
13 14 13 12 11 11 10 10 9 9 8 9 9 9 9 9 9 9 10 11 12 12 13 13 14 14 15 15 15 15 14 14 15 15 15 16 17 17 18 18 18 19 18
11 11 11 10 9 8 8 7 7 7 7 7 8 7 8 8 8 9 10 11 12 13 13 14 14 15 15 15 15 15 15 15 15 16 16 16 17 17 17 18 18 18 18
10 9 9 9 8 7 6 6 6 6 6 6 6 6 7 7 8 9 10 11 12 12 13 13 14 15 15 15 16 16 16 16 16 16 16 17 17 18 18 18 19 19 19

GEFSMW_500_meanwind_198.txt.gz
Wind_Speed
19 20 20 21 21 22 23 25 26 26 26 27 26 27 28 28 28 28 28 29 29 30 30 29 29 29 29 29 29 29 29 29 29 29 29 28 28 29 29 29 29 30 30
20 22 22 21 22 22 24 25 25 26 26 26 26 27 27 27 28 28 28 29 30 29 29 29 29 29 28 28 29 29 28 28 28 28 28 28 28 28 28 28 29 30 30
20 21 22 22 23 23 24 25 25 26 26 26 26 27 27 28 28 29 29 30 29 28 28 29 29 29 28 29 28 27 28 28 28 28 28 29 28 27 28 28 29 29 30
19 21 22 23 23 23 24 24 25 25 25 26 27 27 27 28 28 29 29 29 28 29 29 29 28 28 28 28 28 27 27 27 27 27 27 28 28 28 27 28 28 29 28
21 21 21 22 22 23 24 25 24 23 24 25 26 26 26 27 28 28 28 28 28 28 28 28 28 28 28 28 27 27 27 27 27 26 26 26 27 27 28 28 28 28 27
20 20 20 22 23 23 23 23 22 23 24 25 25 25 26 27 28 28 27 27 27 28 27 28 28 28 27 27 26 26 27 27 26 26 25 26 25 26 26 26 25 25 25
19 20 22 24 24 23 23 23 24 24 24 24 24 25 25 26 26 27 27 27 27 27 27 27 27 26 25 25 25 25 25 25 25 25 25 25 25 26 25 25 25 24 23
20 20 21 22 23 23 23 24 23 23 23 24 24 24 25 25 26 26 26 27 26 25 25 25 25 24 24 23 23 24 24 24 24 25 25 25 25 26 25 24 24 25 24
21 21 22 22 23 23 23 24 23 24 24 24 24 24 25 25 26 25 25 25 25 24 24 24 25 24 24 24 24 25 24 24 24 24 24 25 25 25 25 24 24 24 24
21 20 21 22 23 24 24 24 24 24 24 25 24 24 25 25 24 24 23 24 24 23 23 24 24 23 24 24 24 24 24 24 24 24 24 24 24 24 23 23 23 23 23
24 22 23 23 24 24 24 24 24 24 24 24 24 24 24 24 23 23 23 23 23 23 22 22 22 22 23 23 23 24 24 23 23 23 23 23 23 23 23 22 22 22 22
22 23 24 24 24 24 24 23 24 24 24 24 24 23 23 23 23 22 22 22 22 21 21 21 22 21 22 22 22 22 22 22 22 22 22 22 22 22 21 20 20 20 21
23 23 23 24 24 25 25 24 24 24 24 24 24 23 23 21 21 21 21 21 21 21 21 21 21 20 20 21 21 21 21 21 21 21 21 21 21 20 19 18 18 19 20
23 23 23 23 23 24 24 23 23 24 24 24 23 22 21 20 20 20 21 21 21 21 20 19 20 19 20 20 20 21 21 20 20 19 19 18 18 19 18 18 18 18 19
23 24 23 23 23 24 24 24 23 23 24 23 21 20 19 19 19 19 20 20 20 19 18 19 19 19 20 20 20 20 19 19 19 19 18 18 18 18 19 19 18 18 18
24 24 24 23 24 24 24 24 23 23 22 21 19 20 19 19 19 19 20 20 20 19 18 18 19 19 19 19 19 19 19 19 19 18 18 17 18 18 18 18 18 18 18
24 24 23 23 23 24 24 23 22 22 20 20 19 18 18 18 18 18 19 19 18 17 17 18 18 19 19 19 19 18 19 19 19 18 17 17 17 18 17 17 18 18 18
24 23 23 22 23 22 22 22 21 21 19 18 17 17 17 17 17 17 17 17 17 17 18 18 18 18 18 19 18 18 18 18 18 18 18 18 18 18 17 17 18 18 17
22 22 23 22 22 22 22 21 20 19 18 17 17 17 16 16 17 16 15 16 16 16 17 18 17 18 18 18 17 18 17 17 17 17 17 18 18 18 17 17 17 17 17
22 22 22 22 22 21 21 21 20 19 18 17 16 16 15 15 15 15 14 15 16 16 17 16 16 17 17 17 17 17 17 17 17 17 17 17 17 17 17 17 17 17 17
22 22 21 22 22 21 21 20 19 18 17 16 15 14 14 14 14 14 14 14 15 15 15 15 16 16 16 16 16 16 16 16 17 17 17 17 17 17 17 17 16 17 17
21 21 21 21 20 20 20 19 17 17 15 14 14 13 13 13 13 13 13 14 13 13 14 15 15 16 15 16 16 16 16 16 17 17 18 18 18 18 18 17 17 17 17
20 20 20 19 19 18 17 17 16 14 14 12 12 12 12 12 11 11 12 12 13 13 14 15 15 15 16 16 16 16 16 17 18 18 19 18 18 18 18 18 17 17 17
19 19 18 17 17 16 15 14 14 13 12 11 11 11 10 10 9 9 10 11 12 13 13 14 15 15 16 16 16 16 16 17 18 19 19 19 19 19 19 19 18 18 18
18 17 16 15 15 14 13 13 13 12 10 9 9 9 8 8 8 8 9 10 11 12 14 14 15 15 15 15 16 17 17 18 18 19 19 19 19 19 19 19 20 19 19
15 15 14 13 12 12 12 11 11 9 8 8 8 7 7 6 7 8 9 10 11 13 14 14 15 15 15 15 16 16 17 18 19 19 19 20 20 20 19 20 20 21 20

GEFSMW_500_meanwind_204.txt.gz
Wind_Speed
16 16 16 17 18 19 20 20 20 20 21 22 22 22 22 23 23 24 25 26 27 26 27 27 27 27 26 25 25 26 26 26 26 26 26 26 26 27 27 27 28 28 29
17 17 17 18 19 20 20 21 21 21 22 23 23 23 23 23 22 24 25 27 27 26 26 26 27 27 27 26 26 26 26 26 27 26 26 25 26 27 27 27 28 29 30
18 19 20 20 20 21 20 21 21 22 22 22 23 24 23 23 23 24 25 26 25 25 25 26 26 26 26 26 26 25 25 26 27 26 26 25 26 27 27 28 28 29 29
19 20 20 20 20 20 19 20 21 21 22 22 23 23 23 23 24 25 26 26 26 26 26 26 25 25 25 25 24 24 25 25 25 25 25 26 26 26 26 27 28 28 28
20 20 21 20 20 20 19 20 21 22 22 22 22 22 23 24 24 25 25 26 26 26 25 24 23 23 24 24 24 23 23 23 24 24 25 26 26 27 27 27 27 27 27
20 21 21 22 21 20 20 21 22 23 23 23 23 23 23 23 24 24 25 26 25 25 23 23 23 22 22 23 22 22 22 22 22 23 23 24 25 27 27 26 26 26 26
20 21 23 22 21 21 21 21 21 22 23 23 24 23 22 22 23 24 24 25 24 22 22 22 22 22 22 22 22 21 21 21 22 22 23 23 24 25 25 25 25 25 26
21 21 23 22 21 21 21 20 21 22 22 23 23 23 22 22 23 23 24 23 22 22 22 21 21 22 22 22 21 21 21 21 21 22 22 23 24 24 24 24 24 24 24
21 21 22 22 20 19 20 20 21 23 23 23 22 22 22 23 23 23 23 22 21 21 21 21 21 21 21 21 20 20 21 21 22 22 22 22 23 23 23 23 23 22 22
21 21 21 21 21 21 20 20 20 22 23 23 22 22 23 23 23 23 22 21 21 21 20 20 20 21 21 20 20 20 21 21 22 22 22 22 22 22 22 21 21 21 21
20 20 21 21 21 21 21 20 20 21 22 22 22 22 23 23 23 22 21 21 21 20 20 20 20 20 20 21 20 19 19 20 20 21 21 21 21 20 20 19 20 21 21
22 22 22 20 19 20 20 20 20 21 21 21 21 22 22 22 21 21 22 21 20 20 20 20 20 20 21 20 20 18 17 18 18 19 20 20 20 19 19 19 19 20 20
21 21 21 20 20 20 20 21 21 21 21 20 21 21 21 21 20 20 20 21 20 20 20 19 19 20 20 19 18 18 18 18 18 19 19 19 19 18 18 19 19 19 20
21 20 21 20 21 22 21 21 22 21 21 21 21 21 21 20 20 19 20 20 19 19 19 19 19 19 18 18 17 18 18 18 18 19 18 18 18 18 18 18 18 19 19
21 20 20 21 21 22 22 22 22 22 22 21 20 21 20 19 19 19 19 18 18 18 18 19 19 18 18 17 17 17 18 18 18 18 18 18 18 18 19 19 18 18 18
20 20 20 21 21 22 21 21 22 22 21 20 19 18 18 18 18 18 18 17 17 17 17 18 17 16 17 16 16 16 17 17 17 18 18 18 18 18 18 18 17 17 17
21 21 21 21 21 21 22 22 22 21 20 19 18 18 18 18 17 17 17 16 16 16 16 16 15 15 15 15 16 16 16 16 16 16 16 17 17 17 16 16 16 17 18
21 21 21 20 21 21 22 22 22 20 19 18 18 18 18 18 17 17 16 16 16 16 16 15 15 15 16 16 16 16 16 15 15 15 15 16 16 16 16 16 17 18 18
21 20 20 21 21 21 22 21 20 18 18 18 17 17 17 16 16 16 16 15 16 15 15 16 15 15 15 15 16 16 15 15 15 15 15 16 16 17 17 17 17 17 17
20 20 20 20 21 21 20 19 18 17 16 16 16 16 16 15 15 15 15 15 15 14 14 14 14 14 14 14 14 14 14 14 14 15 15 16 16 17 17 17 17 17 17
20 20 20 19 20 19 19 18 16 16 16 16 15 15 14 14 13 13 14 14 14 13 13 13 14 14 14 14 14 14 14 14 14 15 15 15 16 17 17 17 18 18 18
20 19 18 19 19 18 18 18 17 16 15 15 14 13 13 13 12 12 12 12 12 13 12 12 13 13 14 14 14 14 14 15 15 15 16 16 17 17 17 17 18 18 18
18 18 17 18 17 17 17 17 16 15 14 14 13 13 12 12 11 11 11 11 11 11 11 11 12 13 13 14 14 14 15 15 16 16 16 17 17 18 18 18 19 19 19
16 16 16 16 15 15 16 15 14 14 14 13 12 12 11 11 10 10 9 10 10 10 10 10 12 13 13 14 14 15 15 16 16 17 17 18 18 19 19 20 20 20 20
16 16 15 14 13 13 13 13 13 13 12 12 11 11 10 10 8 8 8 8 9 10 10 10 12 13 14 14 14 15 16 16 17 18 19 19 19 19 19 20 21 21 21
15 14 14 14 13 12 11 11 11 11 10 9 9 9 9 8 7 7 7 8 9 10 11 11 12 14 14 15 15 16 17 18 18 18 19 19 19 20 20 20 21 22 21

GEFSMW_500_meanwind_210.txt.gz
Wind_Speed
18 19 20 20 21 22 22 23 21 20 18 19 20 22 22 22 23 23 24 24 25 26 27 27 28 28 29 29 29 29 28 28 27 27 28 28 29 29 29 30 30 30 30
18 19 20 21 21 22 24 23 21 20 20 21 21 22 23 23 24 24 25 25 26 27 27 27 28 28 29 29 29 28 27 26 26 26 26 26 28 28 27 27 28 29 29
20 21 22 23 23 23 23 22 20 21 22 23 23 23 24 23 24 25 25 25 25 26 26 27 27 28 28 28 27 27 27 26 26 26 26 26 26 25 25 26 27 27 28
21 22 23 23 24 24 23 21 21 22 22 22 23 23 24 24 24 24 25 26 26 26 27 27 28 28 28 27 26 25 25 26 26 26 26 26 25 25 24 25 26 26 26
21 22 23 23 23 23 22 22 23 24 23 23 23 23 24 23 24 24 25 26 26 26 26 26 27 27 26 26 25 24 24 25 24 25 25 25 24 24 23 23 24 25 26
21 22 22 22 22 23 23 24 24 24 23 23 23 23 24 24 24 25 25 25 25 25 25 25 25 25 24 24 24 24 24 23 23 24 24 24 24 24 23 23 23 24 26
21 22 21 22 22 23 24 24 24 24 23 24 24 24 24 24 25 25 25 25 25 24 24 24 24 24 24 24 24 23 23 23 23 24 24 24 24 23 23 23 24 24 25
21 21 21 22 22 23 24 24 24 25 24 24 24 24 25 25 25 25 25 25 24 23 23 23 23 23 23 23 23 23 23 23 23 23 24 24 23 23 23 23 24 24 24
22 21 21 21 22 23 23 23 23 25 25 25 24 25 25 24 24 24 24 24 23 23 23 22 23 22 22 22 22 22 21 22 22 23 23 23 23 23 23 23 23 24 24
21 21 21 22 23 23 23 23 23 22 23 23 24 24 24 24 23 23 24 23 22 22 22 22 22 22 22 22 22 22 22 22 22 22 22 23 23 23 23 22 23 23 23
21 21 22 23 22 22 23 23 22 22 22 22 21 22 23 23 23 23 23 22 21 21 22 22 22 22 22 22 22 22 23 23 22 22 22 21 21 22 22 22 22 22 22
21 22 23 22 22 22 22 23 23 22 22 21 21 22 22 22 23 23 23 22 22 22 22 21 21 21 21 21 22 22 22 21 21 21 21 21 21 21 22 22 22 22 22
21 22 22 22 22 22 22 23 22 22 22 22 22 22 23 22 22 22 22 22 22 22 22 21 20 20 19 20 20 20 20 20 20 20 20 20 20 21 22 22 22 22 21
21 21 20 21 22 22 22 22 22 22 22 22 22 22 22 22 22 22 22 21 21 21 21 20 19 19 19 19 20 20 20 20 20 20 19 19 19 20 20 21 21 21 21
21 21 21 21 21 21 22 22 22 22 22 22 22 22 22 21 21 21 21 21 21 20 20 19 19 18 19 19 20 20 20 20 19 18 18 18 19 20 20 20 19 20 19
22 20 20 21 22 22 22 21 21 21 22 22 21 21 21 21 21 21 21 21 20 19 19 18 18 18 19 20 20 20 20 19 19 18 18 18 18 19 19 19 20 20 19
22 21 21 21 21 21 21 21 21 21 21 21 21 21 21 21 21 20 20 20 20 19 19 18 18 19 19 19 19 19 19 19 18 18 18 18 18 19 19 19 19 19 19
22 21 22 22 21 21 21 21 21 20 20 21 20 20 20 20 20 20 20 20 19 19 20 19 19 18 18 19 18 18 18 19 18 18 18 18 19 19 19 19 19 19 19
22 22 22 21 21 22 21 21 20 19 20 20 20 19 20 20 20 21 20 20 19 19 19 18 18 17 17 17 18 18 19 19 19 19 19 19 19 19 19 19 19 19 19
23 23 22 22 22 22 21 20 19 19 20 19 19 19 19 20 20 20 20 19 19 19 18 17 17 17 17 17 18 19 20 20 20 20 20 20 20 20 20 19 19 20 20
24 23 22 22 22 21 21 20 19 18 19 18 18 18 19 19 20 20 19 19 18 17 17 16 16 16 17 17 18 19 19 20 20 20 21 21 20 20 19 20 20 21 21
23 22 21 22 21 20 19 18 17 16 16 16 17 18 19 19 19 18 18 18 17 15 15 15 15 15 17 17 17 18 19 19 20 20 20 20 20 20 19 20 21 21 21
22 22 21 21 20 19 19 17 16 15 15 16 17 17 17 18 17 17 16 16 15 14 13 13 14 15 16 16 18 19 19 20 20 20 20 20 20 20 20 20 21 22 21
22 22 22 21 20 19 18 17 16 16 16 17 17 15 16 16 16 16 15 14 13 13 13 13 14 15 16 17 18 19 19 20 20 19 20 20 19 19 19 20 21 21 21
21 22 21 20 19 18 17 16 16 16 16 15 14 14 14 14 14 13 13 12 12 13 13 13 15 17 18 18 18 18 19 19 20 19 20 20 20 20 20 21 20 20 21
20 20 19 18 18 17 16 16 15 15 14 14 13 13 13 13 12 12 12 12 13 13 14 14 16 17 17 18 18 19 20 20 21 20 21 20 20 20 20 21 21 20 21

GEFSMW_500_meanwind_216.txt.gz
Wind_Speed
19 20 20 21 22 22 23 23 23 24 24 25 24 23 23 24 24 25 26 26 27 27 27 27 27 27 28 28 28 28 28 27 27 27 26 26 26 26 26 26 26 26 26
20 21 22 22 23 23 23 24 24 24 24 23 23 22 22 23 25 26 26 26 27 27 27 27 27 28 28 28 28 28 27 27 27 27 25 25 25 25 25 25 25 25 25
20 21 22 22 23 23 24 24 25 25 24 23 23 23 23 24 25 25 26 26 26 26 27 27 27 28 28 28 27 27 26 26 27 26 25 24 24 24 25 24 25 25 25
20 21 21 21 22 23 23 24 25 25 23 23 23 22 23 24 24 26 27 26 26 26 27 27 28 27 27 27 27 26 26 26 25 24 24 24 24 24 23 24 25 25 25
20 20 21 21 22 23 23 23 24 24 23 23 23 22 23 24 24 24 25 25 26 27 27 28 27 27 26 26 26 25 25 25 24 24 24 25 25 24 24 24 25 25 25
20 20 21 21 22 23 23 24 23 23 23 23 23 24 24 23 24 24 24 25 26 27 27 28 27 27 26 26 25 24 24 24 23 23 23 23 24 24 24 24 25 25 25
20 20 21 21 22 22 22 23 23 23 23 23 24 25 25 24 25 25 27 27 27 27 26 26 26 26 25 25 24 24 24 23 23 23 23 23 23 23 24 24 24 24 25
20 20 21 21 21 21 22 23 23 22 23 24 25 26 26 25 25 26 27 27 27 26 25 25 25 25 25 24 24 23 24 23 23 23 23 23 22 23 23 24 24 24 25
20 20 21 21 21 22 23 23 23 24 24 24 25 25 25 25 25 24 25 26 25 24 24 24 24 24 24 23 23 22 22 22 22 22 22 22 22 21 22 23 23 24 25
20 20 20 20 21 21 22 23 24 24 24 23 23 24 24 24 23 23 24 24 24 23 23 23 24 24 24 23 22 22 22 21 21 21 21 22 21 21 21 22 22 23 23
20 20 20 20 21 22 22 23 23 22 21 21 22 22 22 22 23 24 24 24 22 22 22 22 23 23 22 22 21 21 21 21 21 21 21 22 21 22 22 22 22 23 23
20 20 21 21 21 22 22 23 23 21 21 21 22 22 21 21 22 23 23 22 21 21 22 22 22 22 21 21 20 20 21 21 21 21 21 21 22 22 22 21 22 22 22
20 21 22 22 22 23 23 23 22 21 21 21 21 21 21 21 20 21 21 21 21 21 21 22 22 21 21 20 19 20 20 21 20 20 21 22 22 22 22 21 21 21 21
21 21 22 23 23 23 23 23 22 22 22 21 21 21 21 20 20 20 20 20 20 20 20 21 21 22 20 20 20 20 21 21 20 20 21 21 22 22 21 20 20 20 20
21 22 22 22 22 22 23 23 21 21 22 21 20 20 20 20 19 19 20 19 19 20 20 21 21 21 21 20 21 21 21 20 20 21 21 21 21 22 21 20 19 20 20
21 22 22 22 22 22 22 22 21 21 21 21 20 20 19 19 18 18 19 19 20 21 21 21 21 22 21 21 22 22 21 21 21 20 21 21 21 21 20 20 20 21 21
22 22 21 23 23 23 22 21 21 20 20 20 19 19 19 18 18 19 19 19 20 20 21 21 22 22 21 21 21 21 21 21 20 20 20 20 20 20 20 20 21 21 21
23 23 23 23 23 22 22 21 21 20 20 19 19 19 19 19 19 19 19 19 20 20 21 21 21 21 21 21 21 20 20 20 20 20 20 20 20 21 20 20 20 20 20
23 23 23 23 23 22 21 21 20 20 20 20 19 18 18 18 18 18 19 19 19 19 19 18 18 19 19 20 20 19 19 19 19 19 20 20 20 20 20 20 19 19 20
23 23 23 22 22 21 20 21 20 20 20 20 19 18 18 18 18 17 17 18 18 17 17 16 17 18 18 18 18 18 18 18 19 19 19 19 19 19 19 19 19 20 20
23 23 22 22 21 21 21 20 20 20 20 19 18 17 17 17 17 16 16 16 16 16 16 16 17 17 17 18 17 18 18 18 19 19 19 18 18 17 17 18 18 19 19
22 22 22 22 22 21 21 21 20 19 19 18 17 17 17 17 16 15 15 15 15 15 16 16 16 16 18 17 17 17 18 18 19 18 18 17 17 17 17 17 17 18 18
23 22 21 21 20 20 20 20 19 18 17 16 16 16 16 15 15 15 14 14 15 15 15 16 16 16 17 17 17 17 18 18 18 18 17 17 17 17 17 17 17 17 17
22 21 20 20 19 19 19 19 18 17 16 16 15 14 14 14 14 14 14 15 15 15 15 16 16 16 16 16 17 17 17 17 17 16 16 16 16 16 17 17 17 17 17
21 20 19 19 18 18 18 17 16 16 15 14 14 13 13 14 14 14 15 15 15 16 17 16 16 16 16 17 17 16 16 17 16 16 16 17 16 16 17 17 16 17 17
19 18 17 17 16 17 17 16 16 15 14 14 14 13 13 13 13 14 14 14 15 15 16 16 16 16 16 17 17 16 16 16 15 16 16 16 16 16 16 17 16 17 17

GEFSMW_500_meanwind_222.txt.gz
Wind_Speed
19 19 20 20 21 22 23 23 24 25 25 26 26 27 27 27 27 28 27 28 28 28 28 27 28 30 31 30 29 28 28 28 28 27 27 27 27 27 27 26 26 26 26
20 21 20 21 21 22 23 24 25 26 26 27 27 28 28 28 28 28 27 27 28 28 27 29 29 29 29 28 28 28 28 29 29 28 28 27 27 27 27 26 25 25 26
21 22 22 23 24 24 24 25 25 26 27 27 27 27 28 28 28 29 29 29 29 28 28 28 28 28 29 28 27 28 28 29 28 27 27 26 26 25 25 25 25 25 25
22 23 24 24 24 24 25 25 26 26 26 26 27 27 27 27 28 28 28 28 29 28 28 28 28 29 29 28 28 28 29 29 28 28 28 27 26 25 25 25 26 25 25
23 23 23 24 24 24 24 24 25 25 25 25 26 26 27 27 27 27 27 27 27 27 27 29 29 29 28 29 29 29 29 28 27 27 27 26 26 26 27 25 25 26 25
24 24 24 24 24 24 24 24 25 25 24 25 25 26 26 26 26 26 26 27 26 26 27 28 28 28 28 27 27 27 27 26 27 26 26 26 26 26 26 26 25 25 25
25 25 25 25 25 25 25 24 24 24 24 24 24 25 26 26 26 26 25 26 25 25 26 27 27 27 26 25 26 26 26 26 25 25 26 25 25 25 25 26 26 26 25
24 25 25 25 25 25 25 24 24 24 24 24 24 25 25 25 25 25 25 25 25 25 25 25 24 24 24 24 24 25 25 24 24 25 25 25 25 25 25 26 26 26 26
24 24 25 25 24 24 23 24 24 24 24 25 25 24 24 25 25 24 24 24 24 25 25 24 24 24 24 23 24 24 24 24 24 24 25 24 24 24 24 25 26 27 26
24 24 23 23 23 23 23 24 24 24 25 25 25 25 24 24 24 23 23 22 23 23 24 23 23 22 22 23 24 24 25 25 25 24 24 23 23 23 24 24 24 25 26
24 23 22 22 22 22 23 24 24 25 25 26 25 24 24 23 22 23 23 22 23 23 23 23 23 22 22 22 23 23 24 24 24 24 24 23 22 23 24 24 24 25 25
23 23 23 23 23 23 23 24 24 25 26 25 24 23 22 22 22 23 22 23 23 23 23 23 23 22 22 23 24 24 25 25 24 24 22 22 22 23 23 23 24 25 25
24 23 24 23 24 24 23 24 24 25 24 24 23 22 21 22 22 23 22 22 22 22 22 23 23 23 23 24 24 24 25 24 23 22 22 21 22 22 22 23 23 24 24
23 24 23 24 24 23 23 23 24 24 23 22 22 21 21 22 23 22 22 22 22 23 23 23 23 23 24 24 24 24 24 23 22 22 22 22 21 21 22 22 22 23 23
22 23 24 24 24 24 24 24 25 24 23 22 21 21 22 22 22 22 22 22 22 22 22 23 23 23 24 24 24 24 23 22 23 23 22 21 21 22 22 22 22 22 22
23 24 25 25 24 23 24 24 23 23 23 22 22 22 22 21 21 21 21 22 22 22 23 23 24 23 23 23 23 23 22 22 23 23 22 21 21 22 22 21 21 20 21
24 24 24 23 23 23 23 23 23 22 22 22 22 22 21 21 22 22 22 22 22 22 23 23 23 22 21 22 22 22 22 22 22 23 22 22 21 20 20 20 20 20 21
24 24 23 23 23 23 23 22 21 21 21 21 21 21 21 22 22 22 22 22 22 22 22 22 21 21 21 21 21 21 21 22 22 22 21 20 19 19 19 19 19 19 20
24 25 24 24 23 23 23 22 21 21 21 21 21 21 22 22 22 22 22 22 21 21 21 21 20 20 20 21 21 21 22 22 21 21 21 20 19 19 19 18 18 18 19
24 24 24 23 22 22 22 21 21 21 21 21 21 21 21 22 21 21 20 20 20 20 21 20 20 20 20 20 21 21 21 21 20 20 19 19 18 17 17 17 17 17 18
24 24 23 22 22 21 21 21 21 21 21 20 20 20 20 20 20 20 19 19 19 19 20 19 19 19 20 21 21 20 19 19 18 18 17 17 17 17 17 17 17 17 17
24 24 23 22 21 21 20 20 21 20 19 19 19 19 19 18 18 19 19 18 18 18 19 19 19 20 20 19 19 18 17 16 16 16 16 17 17 17 17 17 16 16 16
22 22 22 21 21 20 20 20 20 19 18 19 19 18 19 18 18 18 18 17 17 18 19 19 18 18 18 17 17 16 15 14 15 16 16 16 16 16 16 16 16 16 17
22 22 21 21 21 20 19 19 19 19 18 18 18 18 18 17 17 17 16 17 17 17 18 18 18 18 17 16 16 15 15 14 14 15 15 16 15 14 15 15 16 16 17
22 22 21 21 20 19 18 18 18 18 18 18 17 17 18 17 16 16 16 16 16 16 17 17 18 18 18 17 16 16 16 15 15 14 14 14 14 14 14 15 16 16 17
23 22 21 21 20 18 18 18 18 18 18 17 17 17 17 15 15 15 15 15 15 15 16 17 18 18 18 18 17 17 16 15 15 14 14 15 15 15 15 16 16 16 17